Skip Page Navigation
NASA JPL Caltech
NASA Logo - Jet Propulsion Laboratory + View the NASA Portal
+ Center for Near-Earth Object Studies
JPL Home Earth Solar System Stars & Galaxies Technology
JPL Solar System Dynamics
BODIES ORBITS EPHEMERIDES TOOLS PHYSICAL DATA DISCOVERY FAQ SITE MAP
JPL Small-Body Database Browser
Search: [ help ]  
468727 (2010 JE87)
Classification: Aten [NEO, PHA]          SPK-ID: 2468727
Ephemeris | Orbit Diagram | Orbital Elements | Mission Design | Physical Parameters | Discovery Circumstances | Close-Approach Data ]

[ hide orbit diagram ]

For accurate long-term ephemerides, please instead use our Horizons system.This orbit viewer was implemented using two-body methods, and hence should not be used for determining accurate long-term trajectories (over several years or decades) or planetary encounter circumstances.


Orbital Elements at Epoch 2459200.5 (2020-Dec-17.0) TDB
Reference: JPL 44 (heliocentric ecliptic J2000)
 Element Value Uncertainty (1-sigma)   Units 
e .4368835109665515 1.3552e-07  
a .9043602695870332 5.5875e-09 au
q .5092601798311932 1.1982e-07 au
i 16.92222598363077 1.742e-05 deg
node 120.5058256580644 3.4654e-05 deg
peri 242.3190346079329 2.6339e-05 deg
M 29.42699576779908 1.8487e-05 deg
tp 2459174.822421543639
(2020-Nov-21.32242154)
1.6033e-05 TDB
period 314.1308857088768
0.86
2.9112e-06
7.97e-09
d
yr
n 1.146019116164314 1.0621e-08 deg/d
Q 1.299460359342873 8.0286e-09 au
  Orbit Determination Parameters
   # obs. used (total)      170  
   data-arc span      3950 days (10.81 yr)  
   first obs. used      2010-05-10  
   last obs. used      2021-03-03  
   planetary ephem.      DE441  
   SB-pert. ephem.      SB441-N16  
   condition code      0  
   norm. resid. RMS      .4893  
   source      ORB  
   producer      Otto Matic  
   solution date      2021-May-14 05:53:59  

Additional Information
 Earth MOID = .0352241 au 
 Jupiter MOID = 4.19398 au 
 T_jup = 6.471 
[ show covariance matrix ]

Ephemeris | Orbit Diagram | Orbital Elements | Mission Design | Physical Parameters | Discovery Circumstances | Close-Approach Data ]

Physical Parameter Table
Parameter Symbol Value Units Sigma Reference Notes
absolute magnitude H 20.79   n/a MPCxxxxx  
diameter diameter 0.308 km 0.016 urn:nasa:pds:neowise_diameters_albedos::2.0[neos] (http://adsabs.harvard.edu/abs/2011ApJ...743..156M)  
geometric albedo albedo 0.108   0.027 urn:nasa:pds:neowise_diameters_albedos::2.0[neos] (http://adsabs.harvard.edu/abs/2011ApJ...743..156M)  

468727 (2010 JE87)          Discovered 2010-May-10 by WISE at WISE
Reference: Last Updated: 2016-06-21

[ hide close-approach data ]
Close-Approach Data   ...sorted by Date/Time (TDB)
Date/Time (TDB) Time Uncertainty
(days_HH:MM)
Body Nominal Distance (au) Minimum Distance (au) Maximum Distance (au) V-relative (km/s) V-infinity (km/s) JD (TDB) Time Uncertainty (minutes) Semi-major axis (km) Semi-minor axis (km) range-LOV angle (deg) N-sigma BP Orbit Ref. Reference Modified
1901-Feb-28 05:50 00:25 Venus 0.139622574547678 0.139545289241025 0.139699953012183 14.9827991584374 14.98176106752 2415443.742823378 25.3972497361162 6871.42313838097 14.8332409746614 55.8611948008901 921744.813428914 T 44 CATAB v2.0g-lin.ifort 2021-May-14 05:54:00 2021-May-14 05:54
1903-Feb-07 21:23 00:07 Earth 0.338340132714404 0.338230935251001 0.338449330185558 25.1452325256672 25.1449193371071 2416153.391276237 6.96616685761995 5445.83485722239 14.3185998669583 -0.888285011933805 51641.8567017831 T 44 CATAB v2.0g-lin.ifort 2021-May-14 05:54:00 2021-May-14 05:54
1903-Nov-14 12:49 00:23 Earth 0.46779275172391 0.467751717232595 0.467833792965176 14.3436147195025 14.343217613667 2416433.034000305 22.9515116665378 3470.06278787347 30.3542012845036 -53.8711990416438 1252428.81254615 T 44 CATAB v2.0g-lin.ifort 2021-May-14 05:54:00 2021-May-14 05:54
1904-Mar-02 08:38 00:19 Earth 0.391424047228963 0.391385952049691 0.39146214267766 11.2503246022511 11.2497195240884 2416541.860000637 18.7149462292305 1967.53983425293 57.4210581039786 15.1013462091057 251710.020849383 T 44 CATAB v2.0g-lin.ifort 2021-May-14 05:54:00 2021-May-14 05:54
1904-Aug-15 13:25 00:16 Earth 0.468361193676839 0.468335244526017 0.468387149950473 19.3180424519709 19.3177479612285 2416708.059159691 16.4191547399062 3157.70735049646 11.7714091120897 65.8069432949983 3438951.12046273 T 44 CATAB v2.0g-lin.ifort 2021-May-14 05:54:00 2021-May-14 05:54
1905-May-16 11:14 00:09 Earth 0.312277726483053 0.312219850722567 0.312335625159053 19.8354284434497 19.8349982790439 2416981.967990919 8.64682919174493 5111.84287015019 42.5427748131931 -55.6235114493708 818994.81363752 T 44 CATAB v2.0g-lin.ifort 2021-May-14 05:54:00 2021-May-14 05:54
1905-Jun-17 12:11 00:22 Venus 0.127750480089575 0.127682936714598 0.127818112587563 15.1281073263448 15.1269836585415 2417014.007717898 21.5780557172186 6298.67305806905 16.0539409576794 57.6496095912387 831643.966360003 T 44 CATAB v2.0g-lin.ifort 2021-May-14 05:54:00 2021-May-14 05:54
1909-Feb-13 20:46 00:06 Earth 0.484152266577971 0.484062001196107 0.484242531964568 29.7122917921946 29.7121065689064 2418351.365134725 6.06848303149097 4501.80131446329 15.1568237276171 0.981559437016785 77899.2075115612 T 44 CATAB v2.0g-lin.ifort 2021-May-14 05:54:00 2021-May-14 05:54
1909-Oct-05 09:11 00:18 Venus 0.118485873207444 0.118430865586436 0.118540959998533 15.3613571073231 15.3601639721378 2418584.882305590 17.7014927184974 5555.48520947623 17.108230235946 60.3886002677868 770978.038156285 T 44 CATAB v2.0g-lin.ifort 2021-May-14 05:54:00 2021-May-14 05:54
1910-Feb-12 04:58 00:16 Earth 0.316936692716324 0.316878044940626 0.3169953408149 11.0368432480628 11.0360815024738 2418714.706843014 16.3594452593993 2967.73470382814 42.562299592962 -9.79379359628954 185842.174973857 T 44 CATAB v2.0g-lin.ifort 2021-May-14 05:54:00 2021-May-14 05:54
1911-May-26 16:52 00:09 Earth 0.254854677625538 0.254842866045422 0.254866517253367 15.8500866095629 15.8494269845053 2419183.202816925 9.247931649994 4267.15450468564 40.8186138022068 -82.0773060947708 815014.630681211 T 44 CATAB v2.0g-lin.ifort 2021-May-14 05:54:00 2021-May-14 05:54
1914-Jan-23 14:35 00:14 Venus 0.110934785129684 0.11089303069129 0.110976605966844 15.6472323392291 15.6459812708998 2420156.107898440 14.1441008003406 4760.37904482211 18.0220575634639 64.0399510869115 727102.446100808 T 44 CATAB v2.0g-lin.ifort 2021-May-14 05:54:00 2021-May-14 05:54
1916-Jan-27 00:47 00:06 Earth 0.192198921845416 0.192130432246767 0.192267427624876 11.3957073215609 11.394490734184 2420889.532735123 6.06815444524351 4404.6696257448 9.52494777674332 -39.1489909941977 2171999.5068645 T 44 CATAB v2.0g-lin.ifort 2021-May-14 05:54:00 2021-May-14 05:54
1917-Jun-10 05:28 00:12 Earth 0.273893816601873 0.273871013212505 0.273916636353996 13.1098919318254 13.1091498645006 2421389.727624809 12.3414324919153 3528.30152092573 34.3494081190678 71.1989042051277 813058.676635616 T 44 CATAB v2.0g-lin.ifort 2021-May-14 05:54:00 2021-May-14 05:54
1918-May-14 03:39 00:11 Venus 0.105246805367979 0.105217175501062 0.10527648750493 15.9532397309291 15.9519463431973 2421727.651837847 11.1162137488499 3983.683256311 18.7680696161773 68.2090810472473 696320.567073277 T 44 CATAB v2.0g-lin.ifort 2021-May-14 05:54:00 2021-May-14 05:54
1922-Jan-25 07:34 00:02 Earth 0.0460036421273987 0.0459629083969497 0.0460444059286621 14.5910714932511 14.5871014792203 2423079.815020923 1.87016254377355 2751.34197424948 11.9494506248759 42.3895120236332 404864.167448057 T 44 CATAB v2.0g-lin.ifort 2021-May-14 05:54:00 2021-May-14 05:54
1922-Sep-01 21:39 00:09 Venus 0.101442418905096 0.101422389722334 0.101462487967887 16.2561511799409 16.2548342908172 2423299.402198878 8.77262621838223 3326.23354423197 19.4616757745453 72.5095800231429 672969.236613175 T 44 CATAB v2.0g-lin.ifort 2021-May-14 05:54:00 2021-May-14 05:54
1923-Jul-02 23:05 00:11 Earth 0.340169173548343 0.340146670531508 0.340191684257983 13.9161889963066 13.9156261292039 2423603.461530825 10.6811278406254 2787.45998072029 23.8524615653774 66.2633719501465 1093413.18234684 T 44 CATAB v2.0g-lin.ifort 2021-May-14 05:54:00 2021-May-14 05:54
1926-Dec-21 04:30 00:07 Venus 0.0969031875469127 0.0968940541709145 0.0969123529422454 16.7953664335208 16.7940321176528 2424870.687565346 6.83452822864846 2817.70550439916 20.288214219754 80.689063000739 646675.014903332 T 44 CATAB v2.0g-lin.ifort 2021-May-14 05:54:00 2021-May-14 05:54
1928-Jan-30 11:40 00:03 Earth 0.124672194664731 0.124627723814231 0.124716666167166 18.7358114425498 18.7346707109653 2425275.986290026 2.51224185908676 2262.7121998148 13.392854303233 -11.4673853011812 266574.826468078 T 44 CATAB v2.0g-lin.ifort 2021-May-14 05:54:00 2021-May-14 05:54
1929-Mar-29 20:32 00:09 Earth 0.427829254534283 0.427828449420878 0.427830059655204 10.6591969513422 10.6586126602096 2425700.355796751 8.65489837741965 119.455441106094 24.3714996224662 -74.185150485396 803663.785308465 T 44 CATAB v2.0g-lin.ifort 2021-May-14 05:54:00 2021-May-14 05:54
1929-Jul-22 17:22 00:07 Earth 0.402496779254098 0.402481912875174 0.402511648106274 16.3318725518668 16.3314672119682 2425815.223674449 7.33649799821354 1739.64338641305 16.7343858298686 64.7821657663249 1828214.86752764 T 44 CATAB v2.0g-lin.ifort 2021-May-14 05:54:00 2021-May-14 05:54
1930-May-05 16:11 00:03 Earth 0.460686531062238 0.460655493642751 0.460717569609913 25.8956610302888 25.8954376824714 2426102.174424999 2.93746841165453 1920.65373579412 43.1092017384612 -36.3200963758468 870616.804981244 T 44 CATAB v2.0g-lin.ifort 2021-May-14 05:54:00 2021-May-14 05:54
1931-Apr-11 05:38 00:05 Venus 0.0953356192729852 0.0953323524207412 0.0953389086079723 17.1387260489514 17.137396966094 2426442.734535440 5.39822299712361 2333.13963634071 20.6650946565919 86.0129492217422 634865.527416198 T 44 CATAB v2.0g-lin.ifort 2021-May-14 05:54:00 2021-May-14 05:54
